Wind_Speed
26 25 21 18 19 21 20 18 15 14 11 9 9 10 12 12 11 9 11 10 12 12 13 15 16 15 14 12 12 12 14 16 19 20 15 16 16 18 19 16 16 14 15 20 21
28 28 19 17 17 22 23 19 17 14 14 10 8 10 11 10 10 9 10 10 11 12 13 15 15 15 16 13 12 12 14 15 17 20 18 17 18 18 17 14 16 17 16 20 22
28 21 17 15 17 21 24 20 18 16 16 15 11 10 12 11 12 9 11 11 11 13 13 14 14 15 15 14 13 14 15 17 19 21 21 20 20 20 17 16 17 17 18 22 26
23 19 19 16 17 24 26 20 19 17 17 16 15 11 9 13 12 12 11 12 12 14 13 14 15 15 16 15 14 15 17 17 18 18 20 22 23 22 17 19 20 19 20 23 27
24 23 22 21 20 26 26 24 21 19 16 17 17 15 13 14 14 14 13 12 13 13 12 14 15 15 15 17 16 17 17 19 20 20 20 23 26 21 18 21 23 24 24 25 28
32 29 26 26 21 27 28 24 21 19 18 17 17 14 14 14 16 16 14 14 13 11 12 14 15 15 16 17 18 17 18 18 18 19 19 23 26 22 21 22 24 26 27 28 29
29 29 29 26 24 27 30 25 21 19 18 18 18 15 15 15 18 17 15 14 12 11 12 14 15 16 17 16 17 18 17 18 18 18 19 22 26 23 22 24 25 27 28 26 29
29 30 31 27 27 26 27 25 23 19 20 20 20 18 16 18 21 17 15 14 14 13 15 15 15 16 16 16 16 17 18 18 19 18 20 23 24 26 25 26 27 29 28 30 33
31 30 29 31 31 27 26 26 23 21 23 21 22 19 19 20 20 20 17 15 15 16 17 16 15 16 15 16 16 17 17 18 20 21 21 22 24 27 29 29 31 34 35 34 35
33 32 34 32 32 30 27 26 24 24 23 22 23 21 19 19 21 21 17 14 16 16 16 18 15 15 14 17 17 17 18 21 23 22 22 23 24 27 28 31 33 33 33 36 39
30 32 29 28 37 34 28 28 28 25 22 22 21 18 19 18 19 19 16 16 17 17 17 16 16 15 15 17 17 18 21 23 24 25 23 23 24 28 30 30 31 32 33 36 40
34 30 33 34 34 38 33 30 28 25 21 22 18 18 20 21 19 18 17 16 16 18 18 13 14 14 15 17 18 21 23 22 23 24 24 26 27 29 30 32 33 35 36 37 40
32 26 24 28 31 36 31 28 27 24 23 24 21 22 24 22 21 21 19 17 17 16 16 15 14 15 16 17 18 21 20 22 22 21 24 27 31 31 33 35 36 36 37 38 39
28 21 20 23 28 32 29 30 25 25 26 24 23 22 25 22 22 21 20 20 19 18 14 13 12 14 17 17 17 19 19 20 19 19 23 27 30 30 33 35 36 35 35 37 39
27 23 26 31 33 32 28 26 26 28 24 23 23 23 25 23 24 24 21 19 21 20 16 17 17 17 16 15 17 18 19 21 22 22 25 27 29 32 33 34 35 36 37 39 41
26 26 26 34 36 31 26 26 26 24 23 22 22 23 26 26 27 27 24 22 23 22 19 21 21 19 19 17 18 18 20 21 24 25 26 27 28 31 34 36 38 40 42 44 46
28 27 30 30 31 31 25 26 25 24 23 24 25 28 30 30 29 28 26 25 25 25 24 24 25 23 22 22 21 20 21 22 24 26 27 28 30 32 34 37 41 44 48 49 50
31 31 30 31 30 28 26 26 26 26 27 27 26 28 30 30 30 31 30 29 27 28 26 26 27 27 26 25 24 22 21 23 24 25 26 29 32 34 36 39 42 46 48 49 51
32 32 31 30 29 29 28 27 28 28 28 28 28 30 31 34 33 34 33 32 30 30 30 28 28 29 30 29 26 25 24 24 26 27 30 32 35 36 38 41 43 47 49 52 56
36 35 32 31 29 29 29 29 29 29 28 27 29 31 33 34 34 36 36 34 33 32 32 31 32 32 32 32 28 27 27 29 30 31 34 38 39 40 41 44 46 49 53 56 58
39 37 33 31 29 27 27 30 31 30 29 28 29 31 35 36 37 33 36 38 39 38 36 33 34 33 32 30 29 29 29 32 35 36 37 40 45 43 45 47 49 52 56 57 57
42 41 36 33 32 30 30 31 31 29 28 29 30 32 35 36 39 41 38 38 40 40 38 37 37 35 34 33 33 34 34 36 39 41 42 42 47 49 51 51 52 53 56 59 61
42 38 37 35 33 32 31 32 30 29 28 29 30 33 37 39 39 40 41 40 42 43 43 41 41 39 38 38 38 39 40 41 42 44 46 46 50 52 53 54 56 58 61 63 65
45 39 38 37 34 33 31 30 28 29 29 30 32 34 37 39 40 43 42 42 39 41 43 44 43 42 40 41 44 44 45 45 45 45 48 51 51 54 56 58 61 61 62 63 65
44 42 40 38 37 34 33 32 30 31 30 31 33 34 37 39 41 41 39 40 42 44 42 43 43 42 42 44 43 40 42 45 44 46 48 49 52 55 57 59 61 62 62 66 72
44 44 43 41 40 38 37 35 33 32 32 31 32 34 36 39 41 42 43 40 36 34 34 35 36 39 39 39 38 40 45 47 49 50 51 54 58 58 57 59 61 63 67 71 75
46 48 46 45 42 42 41 39 37 35 34 34 33 33 35 38 39 41 42 44 43 42 41 41 41 40 41 43 44 45 48 49 49 52 55 56 57 58 61 64 66 70 72 74 77
Wind_Direction
254 260 247 260 281 257 264 269 271 264 273 293 276 287 288 265 288 253 268 272 279 285 293 301 303 308 305 299 296 301 303 313 310 310 301 291 285 287 289 297 303 300 311 311 320
245 244 245 264 274 255 261 265 268 258 264 269 276 283 291 272 265 258 276 278 287 294 302 304 309 308 301 301 298 294 295 296 299 298 291 282 275 276 282 294 291 296 304 305 308
236 228 253 264 254 257 255 261 268 260 259 260 273 290 274 272 261 250 267 275 285 290 298 306 302 300 299 295 293 290 290 298 303 300 291 282 280 273 272 281 283 286 287 294 302
218 223 245 253 266 253 254 259 267 265 260 261 259 266 312 264 279 264 267 277 283 291 298 293 296 300 296 293 286 284 289 291 291 292 294 288 284 275 280 289 289 286 288 293 299
244 230 244 260 267 252 251 260 265 263 261 255 256 261 283 272 269 269 270 281 283 287 299 301 299 303 296 292 289 283 286 294 300 304 298 293 289 282 288 290 293 292 293 292 297
239 232 253 261 252 251 252 257 263 264 256 250 256 262 268 278 262 266 261 275 282 299 315 299 296 294 288 287 287 286 290 296 300 300 297 295 293 288 291 293 291 289 292 297 302
241 244 255 251 241 249 254 256 262 259 253 246 250 256 269 268 258 261 259 271 284 296 295 289 292 291 288 289 288 287 288 288 295 294 285 283 288 289 287 289 291 289 288 298 301
241 240 239 245 237 243 253 257 258 256 249 251 246 254 262 259 250 259 262 267 272 282 285 294 293 291 291 287 283 289 293 297 304 293 282 278 281 283 282 281 284 285 290 295 304
246 243 245 249 243 241 251 256 257 247 248 246 247 254 258 254 259 254 257 260 274 279 288 284 288 294 291 287 287 285 285 295 294 287 273 267 274 279 282 279 279 279 281 292 301
245 255 252 250 241 235 248 255 253 247 244 246 249 262 257 253 263 254 254 258 273 282 288 284 292 296 296 295 294 293 295 298 299 291 274 268 273 280 284 285 282 281 288 297 301
249 257 246 251 245 237 244 248 252 247 244 247 251 257 259 239 261 253 251 263 277 281 281 288 292 299 301 299 300 298 298 298 297 289 285 284 283 285 285 283 287 293 298 303 303
259 251 252 251 246 237 240 243 251 245 243 253 252 250 233 240 251 241 252 268 280 284 282 294 302 293 296 301 298 291 291 299 297 300 294 293 294 294 294 296 299 303 304 302 298
246 246 247 243 241 240 242 242 245 239 240 248 249 247 222 243 233 231 245 254 261 270 284 288 293 299 301 298 297 297 306 307 312 306 298 298 297 296 296 298 302 303 303 303 303
230 238 248 241 236 238 241 240 235 235 241 251 251 244 227 245 236 236 246 251 262 266 273 278 298 302 294 299 304 308 318 314 307 298 292 287 289 293 297 301 303 305 304 304 306
227 238 246 238 240 245 242 229 232 234 246 253 253 244 231 243 239 240 248 255 261 264 269 276 291 303 303 304 308 312 312 305 299 294 289 290 295 298 301 301 301 302 303 304 308
231 240 253 244 242 239 237 231 234 242 253 256 251 243 235 239 239 239 244 250 261 263 270 275 283 292 298 304 306 314 312 310 305 298 295 297 296 298 299 298 298 299 301 304 310
239 252 257 251 236 237 232 237 238 246 251 252 244 239 233 235 237 239 243 250 259 261 263 271 278 285 296 304 308 311 310 305 302 301 303 303 300 300 299 299 301 302 303 306 308
240 251 251 245 238 233 233 235 241 243 251 252 251 245 239 240 243 242 244 246 254 261 262 270 282 290 294 295 301 300 301 304 304 302 299 298 299 301 300 300 301 303 307 310 311
240 250 249 241 238 234 236 237 243 246 254 251 251 246 242 239 244 247 246 249 253 259 266 273 281 285 286 285 286 288 289 295 298 300 301 301 298 299 300 302 304 306 307 309 311
241 250 249 239 238 238 237 237 243 250 255 250 250 247 246 241 245 251 252 250 252 256 262 268 273 280 283 283 284 288 288 293 295 298 299 299 298 298 298 300 303 306 309 311 310
241 249 246 236 235 239 237 242 248 252 253 247 247 248 249 249 244 251 253 251 252 253 257 263 271 276 281 280 282 283 284 290 293 294 295 296 297 297 300 304 306 306 309 308 310
240 247 247 239 238 237 237 243 249 250 249 248 248 249 251 253 249 247 254 258 255 256 258 262 268 274 277 276 278 282 285 290 291 292 292 293 296 300 302 303 303 305 307 308 309
240 248 244 238 237 239 240 244 248 251 251 252 251 249 248 249 250 250 252 258 259 259 259 261 265 273 276 278 280 281 284 287 288 290 291 292 294 297 300 302 306 309 308 308 309
239 245 242 237 237 242 245 247 251 253 254 254 251 249 248 249 251 250 253 256 264 265 265 266 267 271 277 281 282 283 284 285 285 286 289 292 293 296 300 302 305 307 309 309 307
235 242 241 237 240 244 248 252 251 253 255 258 259 253 251 251 251 252 255 259 265 268 269 267 268 272 273 275 280 284 285 288 290 291 290 291 294 298 302 304 305 306 307 307 309
234 241 239 238 242 247 251 255 256 255 257 258 260 260 255 257 257 255 253 256 263 269 273 273 272 273 278 283 287 290 288 287 287 288 291 293 296 301 303 304 305 305 307 308 309
237 240 238 238 243 248 252 256 256 257 256 260 259 259 257 258 260 261 259 253 257 263 267 270 274 279 281 283 285 285 285 288 288 289 293 297 299 302 303 304 305 306 306 308 309
Height
10915 10918 10920 10922 10923 10924 10926 10926 10927 10929 10930 10932 10933 10933 10934 10936 10936 10937 10936 10936 10935 10935 10934 10933 10932 10932 10931 10930 10929 10927 10927 10925 10923 10923 10924 10923 10922 10921 10922 10922 10921 10921 10918 10917 10917
10912 10914 10917 10919 10920 10921 10923 10923 10925 10926 10928 10930 10931 10931 10932 10934 10935 10935 10935 10935 10935 10934 10933 10932 10931 10931 10929 10928 10928 10927 10925 10924 10923 10921 10921 10920 10919 10919 10920 10919 10917 10917 10915 10914 10914
10907 10910 10913 10915 10916 10918 10919 10920 10922 10923 10925 10927 10929 10930 10930 10932 10932 10933 10933 10933 10933 10932 10931 10931 10929 10928 10927 10926 10926 10925 10924 10923 10922 10920 10919 10916 10916 10918 10918 10916 10914 10914 10913 10911 10909
10902 10905 10910 10911 10913 10915 10916 10917 10919 10920 10922 10924 10926 10927 10927 10929 10930 10930 10931 10931 10931 10930 10930 10928 10927 10926 10925 10924 10924 10923 10922 10921 10920 10918 10917 10914 10914 10915 10913 10911 10910 10909 10909 10907 10905
10897 10901 10905 10907 10909 10911 10913 10914 10915 10916 10918 10921 10923 10923 10925 10926 10928 10928 10929 10929 10929 10928 10928 10927 10926 10925 10923 10921 10922 10921 10920 10919 10918 10916 10915 10911 10911 10912 10909 10907 10905 10905 10905 10904 10900
10893 10896 10900 10903 10905 10907 10909 10910 10911 10913 10914 10917 10919 10919 10921 10922 10924 10925 10926 10927 10926 10927 10927 10925 10924 10923 10921 10920 10919 10919 10919 10918 10916 10914 10912 10908 10907 10907 10905 10903 10901 10900 10899 10898 10895
10888 10892 10895 10899 10901 10903 10905 10906 10907 10908 10910 10912 10914 10915 10917 10918 10919 10921 10923 10924 10924 10925 10924 10922 10922 10921 10919 10918 10917 10916 10916 10915 10914 10911 10909 10906 10904 10904 10901 10899 10897 10895 10894 10893 10890
10884 10887 10890 10894 10896 10898 10900 10901 10902 10904 10905 10907 10909 10911 10913 10913 10915 10918 10920 10921 10921 10921 10920 10920 10919 10918 10917 10916 10915 10914 10913 10913 10911 10909 10906 10903 10901 10899 10898 10896 10894 10893 10889 10887 10884
10879 10883 10885 10888 10891 10893 10895 10896 10897 10899 10900 10902 10905 10906 10908 10909 10912 10914 10916 10917 10917 10917 10916 10916 10915 10914 10914 10913 10912 10911 10910 10909 10907 10905 10904 10902 10899 10895 10894 10893 10891 10889 10886 10882 10879
10873 10877 10879 10881 10885 10887 10890 10891 10892 10894 10896 10898 10900 10902 10904 10906 10908 10910 10912 10913 10914 10913 10912 10912 10912 10911 10910 10909 10909 10908 10907 10906 10904 10903 10900 10898 10894 10891 10889 10888 10886 10884 10880 10877 10874
10866 10869 10872 10875 10878 10881 10884 10885 10887 10890 10893 10895 10896 10897 10899 10902 10904 10906 10908 10909 10909 10909 10908 10908 10908 10907 10907 10906 10905 10904 10903 10902 10900 10897 10894 10892 10889 10887 10885 10882 10879 10876 10875 10872 10868
10859 10862 10865 10867 10870 10873 10876 10879 10882 10886 10889 10890 10892 10892 10894 10897 10898 10902 10904 10905 10905 10905 10905 10905 10905 10904 10903 10902 10901 10900 10899 10898 10895 10893 10889 10886 10884 10882 10878 10875 10873 10871 10868 10865 10860
10853 10856 10857 10860 10862 10865 10869 10874 10877 10881 10884 10885 10887 10887 10890 10893 10894 10896 10899 10900 10900 10900 10902 10902 10901 10901 10899 10899 10898 10896 10895 10892 10891 10889 10885 10882 10878 10877 10873 10870 10868 10865 10861 10856 10852
10847 10850 10853 10854 10856 10859 10864 10868 10873 10876 10878 10880 10881 10884 10887 10889 10891 10893 10895 10896 10897 10897 10898 10898 10897 10898 10896 10895 10893 10892 10891 10888 10887 10885 10882 10879 10875 10872 10868 10865 10861 10859 10855 10850 10846
10841 10845 10848 10848 10850 10854 10858 10864 10868 10869 10873 10875 10876 10878 10882 10885 10888 10889 10890 10892 10892 10893 10894 10893 10893 10893 10891 10890 10889 10888 10886 10884 10882 10880 10878 10875 10869 10864 10861 10858 10855 10852 10849 10844 10840
10836 10839 10840 10839 10845 10848 10853 10859 10862 10865 10868 10869 10871 10874 10877 10880 10882 10884 10886 10887 10887 10887 10889 10888 10887 10888 10886 10885 10884 10883 10882 10880 10877 10875 10873 10869 10865 10860 10856 10852 10848 10844 10840 10835 10832
10829 10832 10832 10834 10839 10843 10850 10852 10856 10859 10861 10863 10864 10865 10869 10872 10876 10878 10880 10881 10881 10882 10883 10883 10882 10882 10882 10881 10880 10879 10877 10876 10874 10870 10866 10862 10858 10855 10851 10846 10841 10836 10831 10828 10824
10823 10825 10826 10829 10833 10839 10844 10847 10850 10853 10855 10856 10858 10861 10864 10867 10870 10872 10874 10875 10876 10876 10877 10878 10877 10877 10877 10876 10875 10874 10873 10870 10867 10864 10862 10857 10852 10850 10845 10840 10835 10829 10824 10819 10814
10816 10818 10820 10824 10828 10833 10837 10840 10843 10846 10848 10849 10852 10855 10858 10860 10862 10864 10866 10869 10870 10870 10871 10871 10871 10871 10870 10869 10869 10868 10866 10864 10861 10858 10854 10850 10845 10843 10838 10833 10828 10822 10816 10811 10806
10809 10811 10815 10819 10823 10827 10831 10833 10836 10839 10841 10843 10845 10848 10851 10854 10855 10857 10859 10862 10862 10863 10864 10865 10864 10864 10863 10862 10862 10861 10860 10857 10854 10852 10847 10842 10837 10835 10830 10826 10821 10815 10809 10804 10797
10801 10804 10809 10813 10818 10821 10823 10826 10829 10832 10834 10837 10840 10842 10844 10846 10849 10850 10851 10853 10854 10855 10857 10858 10858 10858 10856 10856 10855 10854 10852 10850 10847 10844 10841 10835 10826 10827 10822 10818 10813 10807 10801 10794 10787
10793 10797 10802 10807 10811 10814 10817 10819 10821 10825 10828 10831 10834 10835 10836 10838 10841 10842 10843 10844 10846 10847 10849 10850 10850 10850 10850 10849 10848 10846 10844 10842 10838 10835 10831 10827 10820 10816 10813 10810 10805 10799 10792 10785 10777
10784 10789 10794 10799 10803 10806 10810 10812 10815 10818 10821 10824 10826 10828 10828 10830 10832 10833 10835 10837 10837 10838 10841 10843 10842 10843 10843 10842 10841 10839 10837 10834 10830 10825 10821 10819 10812 10808 10804 10798 10793 10787 10780 10773 10765
10776 10781 10785 10791 10795 10799 10802 10805 10810 10812 10814 10816 10818 10819 10820 10823 10825 10826 10828 10829 10829 10830 10832 10833 10834 10836 10836 10835 10833 10831 10828 10825 10821 10819 10814 10809 10805 10798 10795 10790 10784 10776 10768 10759 10751
10767 10772 10776 10782 10787 10791 10795 10798 10803 10804 10807 10809 10810 10812 10812 10814 10817 10818 10820 10821 10822 10823 10823 10824 10825 10825 10826 10825 10824 10821 10816 10813 10810 10808 10805 10800 10796 10791 10786 10780 10773 10766 10758 10749 10740
10758 10761 10767 10773 10778 10783 10786 10790 10794 10797 10799 10801 10802 10804 10805 10806 10808 10810 10813 10815 10815 10815 10815 10815 10816 10816 10816 10816 10816 10811 10805 10803 10800 10798 10794 10790 10786 10783 10777 10771 10763 10754 10747 10739 10728
10748 10751 10758 10764 10769 10773 10777 10781 10785 10789 10791 10793 10795 10796 10797 10799 10800 10802 10804 10806 10807 10807 10807 10807 10808 10809 10807 10806 10805 10800 10796 10794 10789 10787 10784 10780 10775 10770 10764 10759 10751 10741 10733 10725 10712